Content
SEND FEEDBACK

Daily
Averages
Monthly
Summary
United States of America

MILAN, MICHIGAN


Home > North America > United States > Michigan
Elevation: 660 feet     Latitude: 42 05N     Longitude: 083 35W

WEATHER
 
SELECT A DAY
Number of Records: 207,433;   Date Range: 1/1/95 - 12/19/14
 
SHARE

PRINT THIS DATA

[ ← Previous Day ]
WEATHER ALMANAC - MARCH 29, 2014
[ Next Day → ]
[ °C ]   °F
Weather ElementAverageHighLow
Temperature38.1 °F41 °F (2:53 am)35.1 °F (11:53 pm)
Dewpoint27.4 °F30 °F (1:53 am)24.1 °F (7:53 pm)
Humidity65.5 %73 % (8:53 am)59 % (7:53 pm)
Barometer30.15 in30.19 in (2:53 am)30.07 in (4:53 pm)
Wind Speed13.7 mph19.6 mph (2:53 pm)
Wind Gust27.6 mph (6:53 pm)
Weather ElementAverage
Visibility9.6 mi
Wind DirectionENE (58.4 °)

Weather ElementTotal
Precipitation---
Heating Degree Days27 (Base 65)
Averaged from 25 records on March 29, 2014
WEATHER CONDITIONS BREAKOUT
WIND DIRECTION BREAKOUT
WEATHER BY HOUR - MARCH 29, 2014
[ °C ]   °F
Local TimeTemperatureDewpointHumidityBarometerVisibilityWind DirectionWind SpeedGust SpeedPrecipitationEventsConditions
1:53 AM39.9 °F30.0 °F68 %30.18 in10.0 miNE (40°)5.8 mphOvercast
2:53 AM41.0 °F30.0 °F65 %30.19 in10.0 miEast (80°)9.2 mphOvercast
3:53 AM39.0 °F30.0 °F70 %30.18 in10.0 miENE (60°)10.4 mphOvercast
4:53 AM37.9 °F28.9 °F70 %30.16 in10.0 miNE (50°)13.8 mphOvercast
5:53 AM37.0 °F28.0 °F70 %30.17 in10.0 miNE (50°)9.2 mphOvercast
6:53 AM37.0 °F28.0 °F70 %30.16 in9.0 miENE (60°)9.2 mphOvercast
7:53 AM37.0 °F28.0 °F70 %30.18 in8.0 miNE (40°)9.2 mphOvercast
8:53 AM37.0 °F28.9 °F73 %30.18 in7.0 miNE (40°)11.5 mphOvercast
9:53 AM37.0 °F28.0 °F70 %30.18 in8.0 miNE (40°)12.7 mphOvercast
10:53 AM37.9 °F28.0 °F68 %30.18 in10.0 miNNE (30°)15.0 mphOvercast
11:19 AM39.0 °F28.0 °F65 %30.16 in10.0 miNNE (30°)12.7 mphMostly Cloudy
11:35 AM39.0 °F28.0 °F65 %30.16 in10.0 miNNE (30°)15.0 mphMostly Cloudy
11:53 AM39.0 °F27.0 °F62 %30.17 in10.0 miNNE (20°)13.8 mphOvercast
12:53 PM39.9 °F28.0 °F63 %30.14 in10.0 miNNE (30°)15.0 mphOvercast
1:53 PM39.9 °F28.0 °F63 %30.12 in9.0 miNE (40°)17.3 mphOvercast
2:53 PM39.9 °F28.9 °F65 %30.09 in10.0 miNNE (30°)19.6 mphOvercast
3:53 PM39.0 °F27.0 °F62 %30.08 in10.0 miNNE (20°)18.4 mphOvercast
4:53 PM39.0 °F27.0 °F62 %30.07 in10.0 miNorth (10°)19.6 mphOvercast
5:53 PM39.0 °F26.1 °F60 %30.08 in10.0 miNorth (10°)16.1 mph25.3 mphOvercast
6:53 PM37.9 °F25.0 °F60 %30.10 in10.0 miNorth (10°)13.8 mph27.6 mphMostly Cloudy
7:53 PM37.0 °F24.1 °F59 %30.13 in10.0 miNorth (10°)16.1 mph25.3 mphOvercast
8:53 PM36.0 °F25.0 °F64 %30.14 in10.0 miNorth (10°)17.3 mphOvercast
9:53 PM36.0 °F24.1 °F62 %30.15 in10.0 miNorth (10°)18.4 mphOvercast
10:53 PM36.0 °F25.0 °F64 %30.15 in10.0 miNorth (360°)12.7 mphOvercast
11:53 PM35.1 °F25.0 °F67 %30.15 in10.0 miNorth (350°)11.5 mphOvercast
Hourly data recorded from KYIP, located miles away from Milan, Michigan







STORIES FROM OUR PARTNERS